• In Hungary
  • List of Countries
  • For 7 days
  • Water Temperature
  • Satellite Maps
  • Weather Map
  • News
  • Weather Widgets
  • user-avatar
    Login

    Hourly Weather Agra

    Today, 23 September, Saturday

    Time Temperature Precipitation Wind Pressure Humidity
    00:00 +27°C° 0.3 mm 3 mps 737 mmHg 91%
    01:00 +27°C° 0.3 mm 3 mps 737 mmHg 92%
    02:00 +27°C° 0.3 mm 3 mps 737 mmHg 92%
    03:00 +27°C° 0 mm 3 mps 737 mmHg 92%
    04:00 +27°C° 0 mm 3 mps 737 mmHg 92%
    05:00 +27°C° 0 mm 3 mps 736 mmHg 92%
    06:00 +27°C° 1.3 mm 4 mps 737 mmHg 92%
    07:00 +27°C° 1.3 mm 4 mps 738 mmHg 92%
    08:00 +27°C° 1.3 mm 4 mps 738 mmHg 91%
    09:00 +28°C° 0.7 mm 4 mps 738 mmHg 88%
    10:00 +29°C° 0.7 mm 4 mps 738 mmHg 84%
    11:00 +34°C° 0 mm 4 mps 739 mmHg 67%
    12:00 +35°C° 1.3 mm 4 mps 739 mmHg 64%
    13:00 +35°C° 1.3 mm 5 mps 738 mmHg 61%
    14:00 +36°C° 1.3 mm 5 mps 738 mmHg 57%
    15:00 +35°C° 0.3 mm 5 mps 738 mmHg 62%
    16:00 +33°C° 0.3 mm 5 mps 738 mmHg 66%
    17:00 +32°C° 0 mm 2 mps 738 mmHg 68%
    18:00 +31°C° 0 mm 3 mps 738 mmHg 71%
    19:00 +30°C° 0 mm 3 mps 739 mmHg 74%
    20:00 +29°C° 0 mm 3 mps 739 mmHg 76%
    21:00 +28°C° 0 mm 2 mps 739 mmHg 78%
    22:00 +28°C° 0 mm 2 mps 739 mmHg 80%
    23:00 +27°C° 0 mm 1 mps 739 mmHg 82%

    Tomorrow, 24 September, Sunday

    Time Temperature Precipitation Wind Pressure Humidity
    00:00 +27°C° 0 mm 1 mps 739 mmHg 83%
    01:00 +27°C° 0 mm 1 mps 739 mmHg 83%
    02:00 +27°C° 0 mm 1 mps 739 mmHg 84%
    03:00 +26°C° 0 mm 2 mps 739 mmHg 84%
    04:00 +26°C° 0 mm 2 mps 739 mmHg 85%
    05:00 +26°C° 0 mm 2 mps 739 mmHg 85%
    06:00 +27°C° 0 mm 3 mps 740 mmHg 81%
    07:00 +28°C° 0 mm 3 mps 740 mmHg 77%
    08:00 +29°C° 0 mm 4 mps 741 mmHg 73%
    09:00 +30°C° 0 mm 4 mps 741 mmHg 67%
    10:00 +33°C° 0 mm 4 mps 741 mmHg 61%
    11:00 +35°C° 0 mm 4 mps 741 mmHg 56%
    12:00 +35°C° 0 mm 5 mps 740 mmHg 53%
    13:00 +36°C° 0 mm 5 mps 739 mmHg 50%
    14:00 +37°C° 0 mm 5 mps 739 mmHg 47%
    15:00 +36°C° 0.1 mm 5 mps 738 mmHg 52%
    16:00 +35°C° 0.1 mm 4 mps 738 mmHg 58%
    17:00 +34°C° 0.1 mm 4 mps 738 mmHg 63%
    18:00 +33°C° 0 mm 4 mps 738 mmHg 67%
    19:00 +31°C° 0 mm 3 mps 739 mmHg 72%
    20:00 +30°C° 0 mm 3 mps 739 mmHg 76%
    21:00 +29°C° 0 mm 3 mps 739 mmHg 76%
    22:00 +29°C° 0 mm 2 mps 739 mmHg 76%
    23:00 +29°C° 0 mm 1 mps 739 mmHg 76%

    Day after tomorrow, 25 September, Monday

    Time Temperature Precipitation Wind Pressure Humidity
    00:00 +28°C° 0 mm 1 mps 739 mmHg 76%
    01:00 +28°C° 0 mm 1 mps 738 mmHg 77%
    02:00 +28°C° 0 mm 2 mps 738 mmHg 77%
    03:00 +28°C° 0 mm 2 mps 738 mmHg 79%
    04:00 +27°C° 0 mm 2 mps 738 mmHg 80%
    05:00 +27°C° 0 mm 2 mps 738 mmHg 81%
    06:00 +28°C° 0 mm 2 mps 739 mmHg 76%
    07:00 +29°C° 0 mm 2 mps 739 mmHg 70%
    08:00 +31°C° 0 mm 2 mps 740 mmHg 65%
    09:00 +34°C° 0 mm 3 mps 740 mmHg 56%
    10:00 +36°C° 0 mm 3 mps 739 mmHg 47%
    11:00 +37°C° 0 mm 3 mps 739 mmHg 38%
    12:00 +38°C° 0 mm 4 mps 739 mmHg 35%
    13:00 +40°C° 0 mm 4 mps 738 mmHg 32%
    14:00 +41°C° 0 mm 5 mps 737 mmHg 28%
    15:00 +40°C° 0 mm 4 mps 737 mmHg 32%
    16:00 +38°C° 0 mm 3 mps 737 mmHg 36%
    17:00 +37°C° 0 mm 2 mps 737 mmHg 39%
    18:00 +35°C° 0 mm 2 mps 737 mmHg 42%
    19:00 +33°C° 0 mm 1 mps 737 mmHg 45%
    20:00 +32°C° 0 mm 1 mps 738 mmHg 48%
    21:00 +32°C° 0 mm 1 mps 738 mmHg 50%
    22:00 +31°C° 0 mm 1 mps 738 mmHg 51%
    23:00 +31°C° 0 mm 1 mps 738 mmHg 53%

    26 September, Tuesday

    Time Temperature Precipitation Wind Pressure Humidity
    00:00 +30°C° 0 mm 1 mps 738 mmHg 53%
    01:00 +30°C° 0 mm 1 mps 738 mmHg 53%
    02:00 +30°C° 0 mm 1 mps 738 mmHg 53%
    03:00 +29°C° 0 mm 1 mps 738 mmHg 52%
    04:00 +29°C° 0 mm 1 mps 738 mmHg 52%
    05:00 +29°C° 0 mm 2 mps 738 mmHg 52%
    06:00 +30°C° 0 mm 2 mps 739 mmHg 50%
    07:00 +31°C° 0 mm 3 mps 739 mmHg 48%
    08:00 +33°C° 0 mm 3 mps 740 mmHg 47%
    09:00 +35°C° 0 mm 4 mps 740 mmHg 42%
    10:00 +36°C° 0 mm 4 mps 740 mmHg 37%
    11:00 +38°C° 0 mm 4 mps 740 mmHg 32%
    12:00 +40°C° 0 mm 4 mps 739 mmHg 31%
    13:00 +40°C° 0 mm 4 mps 739 mmHg 29%
    14:00 +41°C° 0 mm 4 mps 738 mmHg 27%
    15:00 +39°C° 0 mm 3 mps 738 mmHg 31%
    16:00 +38°C° 0 mm 3 mps 738 mmHg 34%
    17:00 +37°C° 0 mm 2 mps 738 mmHg 38%
    18:00 +35°C° 0 mm 1 mps 738 mmHg 40%
    19:00 +33°C° 0 mm 1 mps 738 mmHg 42%
    20:00 +32°C° 0 mm 1 mps 739 mmHg 44%
    21:00 +32°C° 0 mm 1 mps 739 mmHg 46%
    22:00 +31°C° 0 mm 1 mps 739 mmHg 47%
    23:00 +31°C° 0 mm 2 mps 739 mmHg 48%

    27 September, Wednesday

    Time Temperature Precipitation Wind Pressure Humidity
    00:00 +30°C° 0 mm 2 mps 739 mmHg 48%
    01:00 +30°C° 0 mm 1 mps 738 mmHg 48%
    02:00 +30°C° 0 mm 1 mps 738 mmHg 49%
    03:00 +29°C° 0 mm 1 mps 738 mmHg 48%
    04:00 +29°C° 0 mm 1 mps 738 mmHg 48%
    05:00 +29°C° 0 mm 2 mps 738 mmHg 48%
    06:00 +30°C° 0 mm 2 mps 739 mmHg 46%
    07:00 +31°C° 0 mm 2 mps 739 mmHg 44%
    08:00 +33°C° 0 mm 3 mps 740 mmHg 42%
    09:00 +35°C° 0 mm 3 mps 740 mmHg 39%
    10:00 +37°C° 0 mm 4 mps 740 mmHg 35%
    11:00 +40°C° 0 mm 5 mps 740 mmHg 31%
    12:00 +40°C° 0 mm 4 mps 739 mmHg 30%
    13:00 +41°C° 0 mm 4 mps 738 mmHg 29%
    14:00 +41°C° 0 mm 4 mps 738 mmHg 28%
    15:00 +40°C° 0 mm 4 mps 737 mmHg 32%
    16:00 +38°C° 0 mm 3 mps 737 mmHg 36%
    17:00 +36°C° 0 mm 2 mps 737 mmHg 40%
    18:00 +35°C° 0 mm 2 mps 737 mmHg 42%
    19:00 +34°C° 0 mm 2 mps 738 mmHg 45%
    20:00 +32°C° 0 mm 1 mps 738 mmHg 47%
    21:00 +32°C° 0 mm 1 mps 738 mmHg 49%
    22:00 +31°C° 0 mm 1 mps 738 mmHg 50%
    23:00 +31°C° 0 mm 1 mps 738 mmHg 51%

    28 September, Thursday

    Time Temperature Precipitation Wind Pressure Humidity
    00:00 +30°C° 0 mm 1 mps 738 mmHg 52%
    01:00 +30°C° 0 mm 1 mps 738 mmHg 53%
    02:00 +29°C° 0 mm 1 mps 738 mmHg 54%
    03:00 +29°C° 0 mm 1 mps 738 mmHg 54%
    04:00 +29°C° 0 mm 1 mps 738 mmHg 54%
    05:00 +29°C° 0 mm 1 mps 738 mmHg 54%
    06:00 +30°C° 0 mm 1 mps 738 mmHg 51%
    07:00 +31°C° 0 mm 1 mps 739 mmHg 48%
    08:00 +32°C° 0 mm 1 mps 740 mmHg 45%
    09:00 +35°C° 0 mm 2 mps 739 mmHg 40%
    10:00 +37°C° 0 mm 2 mps 739 mmHg 36%
    11:00 +38°C° 0 mm 3 mps 739 mmHg 31%
    12:00 +39°C° 0 mm 3 mps 738 mmHg 30%
    13:00 +39°C° 0 mm 3 mps 738 mmHg 29%
    14:00 +41°C° 0 mm 4 mps 737 mmHg 28%
    15:00 +39°C° 0 mm 3 mps 737 mmHg 32%
    16:00 +38°C° 0 mm 2 mps 737 mmHg 36%
    17:00 +36°C° 0 mm 2 mps 737 mmHg 40%
    18:00 +35°C° 0 mm 2 mps 737 mmHg 42%
    19:00 +34°C° 0 mm 2 mps 738 mmHg 44%
    20:00 +32°C° 0 mm 1 mps 738 mmHg 45%
    21:00 +32°C° 0 mm 1 mps 738 mmHg 47%
    22:00 +31°C° 0 mm 1 mps 738 mmHg 48%
    23:00 +31°C° 0 mm 1 mps 738 mmHg 50%
    Show more